Volver al catálogo

IRIDIUM 33 DEB

ActivoPO
NORAD 38228·DEBRIS·🇺🇸 United States

Lanzado Sep 14, 1997 desde Baikonur Cosmodrome

Loading…

Próximos Pases (próximas 24 horas)

TLE

ActualizadoSource: Space-Track

Época: Sep 14, 2026, 09:25 UTC

1 38228U 97051ZC  26257.39251250  .00000386  00000-0  14543-3 0  9991
2 38228  86.2903 291.2549 0064389  24.9722  36.6740 14.27684444887149

Sigue IRIDIUM 33 DEB en tiempo real con AllMySat

Download on the App Store